Vorticity
-6 22 4 5 8 7 5 6 7 7 6 6 8 6 1 5 2 5 3 2 6 7 7 5 5 5 5 6 6 6 6 6 6 6 7 8 9 9 8 7 7 7 7
5 -1 10 5 8 7 6 6 7 7 6 6 9 6 3 3 6 2 2 5 5 7 5 5 5 6 6 6 6 6 7 8 8 7 8 7 6 6 5 5 6 6 6
3 -3 12 6 7 6 6 6 7 7 8 7 9 7 2 3 2 3 2 5 7 5 5 5 5 6 7 8 7 7 7 6 5 4 5 5 5 5 5 5 5 5 5
10 7 6 7 7 6 7 7 7 8 8 8 11 6 5 5 1 1 3 6 7 5 5 6 7 7 7 7 6 5 4 4 4 5 4 4 5 5 5 5 5 5 5
13 6 5 6 7 7 7 7 8 9 10 10 8 6 5 5 2 1 6 8 5 5 7 7 7 7 5 4 4 4 4 4 4 4 4 4 5 5 5 5 5 5 5
11 10 5 4 6 8 6 6 8 10 12 11 5 4 9 1 2 4 9 5 5 6 7 7 6 5 4 4 4 4 4 4 5 4 4 4 4 4 4 4 4 4 4
8 10 16 10 5 9 6 7 8 15 9 5 6 6 1 4 2 10 7 5 6 7 7 6 4 3 4 4 3 4 4 4 5 4 4 4 4 4 4 3 4 4 4
-1 18 5 1 6 10 7 7 9 11 3 4 7 5 4 1 8 7 4 5 6 7 6 5 4 3 3 3 4 4 4 4 4 5 5 4 4 4 3 3 3 3 3
10 21 5 7 3 7 9 8 10 6 6 3 6 7 0 4 10 5 5 6 7 6 4 3 3 3 3 4 4 4 4 4 4 4 5 4 3 3 3 3 4 4 4
12 17 5 5 3 2 7 10 9 7 0 5 4 3 -3 11 6 4 6 6 5 4 3 3 2 2 3 3 3 4 4 4 5 4 5 5 4 4 4 4 4 4 4
-3 12 15 6 3 9 6 13 8 9 -1 3 2 0 3 12 4 6 6 5 4 4 2 2 2 2 3 4 4 5 5 5 5 5 6 6 6 4 4 4 3 5 4
10 19 -9 19 4 6 8 10 7 9 4 -1 -1 4 10 8 5 6 6 5 4 2 1 2 2 3 4 5 5 5 6 7 7 7 7 7 6 5 5 4 4 5 4
-116 -72 21 20 11 6 9 5 7 8 7 4 6 10 11 3 4 8 4 2 1 2 2 2 2 3 4 5 5 6 5 5 5 6 6 6 5 5 5 5 5 6 6
49 8 7 -1 40 5 12 1 12 8 9 11 13 10 6 5 7 4 3 2 3 1 1 1 2 4 5 5 5 6 6 6 6 6 7 7 6 6 6 5 5 5 5
46 -8 -33 37 26 12 13 1 14 10 9 9 8 6 7 8 5 3 4 1 -1 -0 1 2 2 3 4 4 5 5 5 5 5 4 5 6 5 5 5 5 5 5 5
19 40 5 24 34 7 14 8 11 8 7 7 6 6 7 5 3 3 0 -1 -0 1 1 2 3 4 4 4 3 3 4 4 4 5 5 5 5 5 5 5 5 5 5
17 27 52 8 17 16 0 12 12 8 7 7 8 7 4 3 1 -1 -1 0 0 1 2 2 3 5 5 5 4 3 3 3 4 5 5 6 6 6 5 5 5 5 6
-0 19 -1 -80 31 8 4 3 8 7 10 6 6 5 3 2 0 0 1 1 2 1 2 2 3 4 5 5 6 4 3 2 4 5 6 6 5 5 6 7 6 6 7
20 5 40 61 -8 16 13 9 7 6 9 7 5 4 4 2 2 2 2 3 2 2 3 4 5 4 5 5 5 5 4 3 3 5 6 6 5 6 6 5 4 3 5
32 22 13 9 -4 9 10 11 14 12 14 9 4 3 3 3 3 2 2 2 1 2 4 4 4 5 6 6 5 5 5 7 3 5 8 7 6 3 2 1 2 5 6
-1 15 17 43 2 -4 -5 -5 7 8 10 11 16 7 4 7 5 3 4 6 5 2 5 2 8 5 5 3 6 9 9 8 8 8 10 7 5 4 6 8 9 9 10
16 -4 72 -28 10 5 6 1 -4 -12 6 2 3 2 4 5 5 8 5 2 2 5 -7 -2 -1 14 20 10 9 5 11 19 17 12 7 5 5 6 5 4 4 6 7
21 -2 -3 44 6 -3 -2 14 -8 8 -13 7 1 -3 -2 1 -2 -6 5 6 7 2 39 -28 25 29 13 3 9 12 14 8 -4 6 2 -6 -9 -4 -11 -17 1 3 6
26 29 41 43 -6 -17 -2 -3 11 2 14 18 15 4 9 12 -1 2 -9 7 13 8 4 7 16 5 38 11 41 16 1 4 -12 4 3 -13 -21 -20 14 32 0 6 9
46 4 -14 34 25 -14 3 -1 -6 6 -6 45 -32 3 -17 -2 35 5 -14 13 -7 2 -12 6 4 8 15 15 31 -4 4 -18 8 -2 42 -4 15 5 6 10 13 9 7
59 -10 18 1 34 36 -4 -12 -2 4 19 7 -14 47 34 4 19 -19 17 34 45 45 34 3 -0 5 4 10 12 12 13 3 24 15 6 11 2 5 6 8 8 7 8
Height
3128 3131 3132 3133 3134 3135 3136 3137 3138 3139 3140 3142 3144 3146 3148 3150 3151 3153 3154 3155 3155 3156 3157 3158 3158 3159 3159 3159 3160 3160 3160 3161 3161 3161 3162 3162 3162 3162 3162 3161 3161 3161 3161
3126 3129 3130 3132 3133 3134 3135 3136 3137 3138 3139 3141 3144 3146 3148 3150 3152 3153 3154 3155 3156 3157 3158 3159 3159 3160 3160 3161 3161 3161 3162 3162 3163 3163 3163 3163 3164 3164 3163 3163 3163 3162 3162
3124 3127 3128 3130 3131 3132 3134 3136 3137 3138 3139 3140 3143 3146 3149 3150 3151 3153 3154 3155 3156 3158 3159 3160 3160 3161 3162 3162 3163 3163 3164 3164 3165 3165 3165 3165 3165 3165 3164 3164 3164 3163 3163
3121 3125 3127 3129 3130 3131 3132 3134 3136 3137 3139 3140 3142 3146 3148 3151 3152 3153 3154 3156 3157 3158 3160 3161 3162 3162 3163 3164 3164 3165 3166 3166 3166 3166 3166 3167 3167 3166 3166 3166 3165 3165 3164
3118 3122 3125 3127 3129 3130 3131 3133 3135 3137 3138 3140 3142 3145 3148 3150 3152 3154 3155 3156 3157 3159 3160 3161 3162 3164 3164 3165 3166 3166 3167 3168 3168 3168 3168 3168 3168 3168 3167 3167 3166 3166 3165
3117 3119 3122 3125 3127 3128 3130 3132 3134 3136 3138 3140 3143 3145 3147 3150 3152 3153 3155 3157 3158 3159 3161 3162 3163 3165 3166 3167 3167 3168 3168 3169 3169 3169 3169 3169 3169 3169 3169 3168 3167 3166 3166
3116 3117 3120 3122 3124 3127 3128 3131 3133 3135 3138 3141 3143 3145 3146 3148 3151 3153 3155 3157 3159 3160 3161 3163 3164 3166 3167 3168 3169 3169 3170 3170 3170 3170 3170 3170 3170 3170 3170 3169 3168 3167 3167
3115 3116 3118 3121 3122 3124 3127 3129 3132 3135 3139 3141 3143 3145 3147 3149 3150 3153 3155 3157 3159 3161 3163 3164 3165 3167 3168 3169 3170 3170 3171 3171 3170 3170 3170 3170 3170 3170 3170 3170 3169 3168 3167
3112 3112 3115 3119 3120 3122 3124 3127 3130 3135 3138 3140 3142 3144 3146 3149 3151 3153 3156 3158 3160 3162 3163 3165 3166 3167 3168 3169 3170 3171 3171 3171 3171 3171 3171 3171 3171 3170 3170 3169 3168 3168 3167
3105 3108 3113 3116 3117 3119 3120 3124 3128 3132 3136 3139 3141 3143 3146 3148 3151 3153 3155 3158 3160 3161 3163 3165 3166 3167 3168 3169 3170 3171 3171 3171 3170 3170 3170 3170 3170 3170 3169 3169 3168 3168 3167
3095 3089 3108 3112 3114 3117 3119 3121 3125 3129 3133 3137 3140 3143 3145 3148 3151 3153 3155 3158 3160 3162 3163 3165 3166 3167 3168 3168 3169 3169 3169 3170 3170 3170 3170 3170 3169 3169 3168 3168 3167 3167 3166
3073 3080 3095 3107 3111 3113 3116 3118 3121 3125 3129 3133 3137 3142 3144 3147 3150 3153 3155 3158 3160 3162 3164 3165 3166 3167 3167 3167 3168 3168 3168 3168 3168 3168 3168 3168 3168 3168 3167 3167 3166 3165 3165
3071 3073 3088 3102 3106 3108 3112 3114 3118 3121 3125 3129 3135 3139 3142 3145 3148 3152 3155 3157 3159 3162 3163 3165 3166 3166 3166 3167 3167 3167 3167 3167 3167 3167 3167 3167 3166 3167 3166 3166 3166 3165 3163
3076 3079 3084 3089 3096 3100 3107 3110 3114 3119 3122 3127 3132 3136 3140 3143 3147 3151 3154 3156 3159 3161 3162 3164 3164 3165 3166 3166 3166 3166 3166 3166 3165 3165 3165 3165 3165 3165 3165 3164 3163 3162 3160
3068 3071 3079 3081 3086 3092 3101 3106 3110 3116 3120 3125 3130 3135 3139 3143 3146 3149 3152 3156 3158 3160 3162 3162 3163 3164 3164 3164 3164 3165 3165 3164 3164 3163 3163 3163 3163 3162 3162 3161 3160 3159 3158
3063 3072 3073 3074 3080 3085 3099 3103 3109 3114 3119 3124 3129 3134 3138 3142 3146 3149 3151 3154 3157 3158 3159 3160 3161 3162 3162 3162 3162 3162 3162 3163 3163 3162 3161 3161 3161 3160 3160 3159 3158 3157 3156
3059 3062 3065 3070 3074 3091 3099 3102 3107 3112 3119 3125 3129 3134 3138 3142 3145 3148 3149 3152 3154 3156 3158 3158 3159 3159 3160 3160 3160 3161 3161 3160 3160 3160 3159 3159 3158 3158 3158 3157 3156 3154 3153
3054 3060 3066 3067 3075 3087 3097 3100 3104 3109 3116 3122 3128 3133 3137 3140 3143 3145 3146 3149 3151 3153 3155 3156 3157 3157 3158 3157 3158 3158 3158 3158 3158 3157 3157 3156 3156 3156 3155 3155 3153 3152 3151
3046 3054 3063 3070 3078 3084 3094 3099 3102 3107 3113 3118 3124 3128 3133 3137 3140 3143 3144 3145 3147 3148 3151 3151 3153 3154 3155 3155 3155 3154 3154 3155 3155 3154 3154 3154 3154 3153 3153 3152 3151 3149 3148
3044 3048 3056 3064 3076 3085 3091 3096 3099 3104 3110 3115 3120 3125 3129 3133 3136 3139 3141 3142 3144 3145 3146 3147 3148 3150 3150 3150 3150 3150 3149 3151 3151 3150 3150 3150 3150 3149 3149 3148 3146 3145 3144
3042 3051 3056 3060 3073 3083 3090 3094 3098 3104 3109 3114 3120 3123 3126 3128 3131 3134 3136 3138 3139 3140 3141 3142 3143 3144 3145 3145 3144 3144 3145 3145 3146 3146 3146 3146 3145 3145 3145 3144 3142 3140 3138
3042 3050 3058 3062 3071 3078 3086 3093 3098 3103 3107 3112 3116 3119 3121 3124 3126 3129 3132 3133 3135 3135 3136 3136 3138 3139 3139 3139 3140 3139 3140 3141 3138 3142 3141 3141 3141 3141 3140 3139 3137 3136 3133
3042 3048 3055 3063 3070 3076 3081 3086 3093 3097 3103 3108 3111 3114 3117 3118 3121 3124 3128 3129 3130 3130 3131 3132 3131 3132 3134 3131 3132 3134 3134 3134 3134 3135 3134 3136 3135 3136 3136 3135 3133 3131 3129
3041 3046 3053 3058 3067 3073 3078 3084 3091 3095 3097 3101 3104 3108 3110 3113 3115 3119 3122 3124 3124 3124 3125 3125 3126 3124 3124 3124 3125 3127 3128 3129 3129 3130 3129 3129 3127 3130 3131 3130 3129 3125 3123
3038 3045 3050 3058 3063 3069 3076 3081 3085 3089 3092 3097 3099 3099 3102 3107 3109 3110 3114 3115 3119 3119 3120 3119 3120 3120 3119 3119 3118 3122 3121 3120 3121 3121 3120 3121 3123 3125 3124 3123 3121 3118 3115
3040 3045 3050 3053 3061 3068 3074 3079 3081 3085 3088 3089 3093 3095 3098 3101 3106 3107 3108 3108 3109 3110 3116 3116 3113 3114 3114 3113 3115 3116 3117 3117 3117 3117 3115 3117 3117 3119 3118 3117 3115 3112 3109